Home   Weather   Lüneburg   Past weeks

Flag for Germany Past Weather in Lüneburg, Lower Saxony, Germany — Yesterday and Last 2 Weeks

Now
75 °F

Broken clouds.


Feels Like: 78 °F
Forecast: 60 / 69 °F
Wind: 10 mph from Southwest

Location: Fassberg

Current Time: Aug 17, 2017 at 3:59:27 pm

Latest Report: Aug 17, 2017 at 3:20 pm


Visibility: N/A

Pressure: 29.98 "Hg

Humidity: 54%

Dew Point: 57 °F

Location of LüneburgLocation

Past Weather in Lüneburg — Graph

°F

Lüneburg Temperature Yesterday

Maximum temperature yesterday: 73 °F (at 4:20 pm)
Minimum temperature yesterday: 55 °F (at 11:20 pm)
Average temperature yesterday: 64 °F

High & Low Weather Summary for the Past Weeks

 TemperatureHumidityPressure
High81 °F (Aug 15, 6:20 pm)100% (Aug 7, 3:20 am)30.24 "Hg (Aug 7, 3:20 am)
Low41 °F (Aug 14, 5:32 am)33% (Aug 7, 5:20 pm)29.74 "Hg (Aug 3, 1:20 pm)
Average62 °F77%30.01 "Hg
* Reported Aug 2 2:20 pm — Aug 17 2:20 pm, Lüneburg. Weather by CustomWeather, © 2017

Note: Actual official high and low records may vary slightly from our data, if they occured in-between our weather recording intervals... More about our weather records

Advertising

Lüneburg Weather History for the Previous 24 Hours

Scroll right to see more
 ConditionsComfort  
Time TempWeatherWind HumidityBarometerVisibility
2:20 pm
Thu, Aug 17
75 °FPartly sunny.12 mph54%29.98 "HgN/A
1:20 pm73 °FBroken clouds.14 mph69%29.98 "HgN/A
12:20 pm73 °FBroken clouds.12 mph65%29.98 "HgN/A
11:20 am72 °FBroken clouds.13 mph69%30.01 "HgN/A
10:20 am70 °FBroken clouds.12 mph73%30.04 "HgN/A
9:20 am70 °FBroken clouds.7 mph73%30.04 "HgN/A
8:20 am64 °FPartly sunny.6 mph83%30.04 "HgN/A
7:20 am55 °FScattered clouds.6 mph94%30.07 "Hg5 mi
6:20 am52 °FFog.3 mph94%30.07 "Hg4 mi
5:20 am52 °FFog.3 mph94%30.07 "HgN/A
4:20 am52 °FPassing clouds.2 mph94%30.09 "HgN/A
3:20 am54 °FPassing clouds.2 mph94%30.09 "HgN/A
2:20 am52 °FPassing clouds.1 mph94%30.12 "HgN/A
1:20 am52 °FFog.2 mph94%30.12 "HgN/A
12:20 am54 °FFog.1 mph100%30.15 "HgN/A
11:20 pm
Wed, Aug 16
55 °FPassing clouds.2 mph94%30.15 "HgN/A
10:20 pm57 °FPassing clouds.2 mph88%30.15 "HgN/A
9:20 pm59 °FFog.2 mph82%30.15 "HgN/A
8:20 pm64 °FPartly sunny.1 mph73%30.15 "HgN/A
7:20 pm68 °FPartly sunny.3 mph60%30.15 "HgN/A
6:20 pm70 °FPartly sunny.6 mph53%30.15 "HgN/A
5:20 pm73 °FPartly sunny.8 mph47%30.15 "HgN/A
4:20 pm73 °FPartly sunny.8 mph44%30.15 "HgN/A
3:20 pm72 °FScattered clouds.10 mph50%30.15 "HgN/A
Weather by CustomWeather, © 2017

See weather overviewHow to use our weather pages